Location: Stoke Bliss
(52.2667°N, 2.5167°W)
Time: 13:47:13
(UTC+00:00)

ATLAS CENTAUR R/B - Pass Details

Date: 03 March 2021
Orbit: 475 x 670 km, 64.7° (Epoch: 30 March)

Event Time Altitude Azimuth Distance (km) Brightness Sun altitude
Rises 21:36:46 0° 266° (W) 2,526 5.3 -33.1°
Reaches altitude 10° 21:39:15 10° 283° (WNW) 1,658 4.4 -33.4°
Enters shadow 21:39:29 11° 285° (WNW) 1,588 4.3 -33.4°
